Location: Estes Par
(40.3770°N, 105.5210°W)
Time: 23:21:00
(UTC-06:00)

Tiangong 1 - Pass Details

Date: 07 October 2017
Orbit: 293 x 320 km, 42.8° (Epoch: 19 October)

Event Time Altitude Azimuth Distance (km) Brightness Sun altitude
Rises 19:51:08 0° 263° (W) 2,026 6.4 -15.5°
Reaches altitude 10° 19:53:08 10° 267° (W) 1,193 4.9 -15.9°
Maximum altitude 19:55:47 60° 349° (N) 354 0.9 -16.4°
Enters shadow 19:56:08 52° 31° (NNE) 385 0.8 -16.5°
